Weather History for KPOU - March, 2014

Change the Weather History Date:

Saturday, March 15, 2014

  Actual Average Record
Temperature  
Mean Temperature 45 °F 36 °F  
Max Temperature 52 °F 48 °F 76 °F (1990)
Min Temperature 37 °F 25 °F 11 °F (1960)
Degree Days  
Heating Degree Days 20 29  
Month to date heating degree days 543 465  
Since 1 July heating degree days 5246 5036  
Cooling Degree Days 0 0  
Month to date cooling degree days 0 0  
Year to date cooling degree days 0 0  
Moisture  
Dew Point 26 °F    
Average Humidity 48    
Maximum Humidity 65    
Minimum Humidity 35    
Precipitation  
Precipitation 0.00 in 0.11 in 1.19 in (1967)
Month to date precipitation 0.25 1.64  
Year to date precipitation 4.53 7.38  
Sea Level Pressure  
Sea Level Pressure 29.80 in    
Wind  
Wind Speed 7 mph (WSW)    
Max Wind Speed 22 mph    
Max Gust Speed 31 mph    
Visibility 10 miles    
Events      
T = Trace of Precipitation, MM = Missing Value Source: NWS Daily Summary

Daily Weather History Graph

Daily Weather History Graph

Search for Another Location

Airport or City:

Trip Planner

Search our weather history database for the weather conditions in past years. The results will help you decide how hot, cold, wet, or windy it might be!

Date:

Astronomy

Mar. 15, 2014 Rise Set
Actual Time 7:07 AM EDT 7:02 PM EDT
Civil Twilight 6:39 AM EDT 7:29 PM EDT
Nautical Twilight 6:07 AM EDT 8:02 PM EDT
Astronomical Twilight 5:34 AM EDT 8:34 PM EDT
Moon 6:18 PM EDT (3/15) 6:18 AM EDT (3/15)
Length of Visible Light 12h 50m
Length of Day
11h 54m
Waxing Gibbous, 99% of the Moon is Illuminated
Mar 15
Waxing Gibbous
Mar 16
Full
Mar 23
Last Quarter
Mar 30
New
Apr 7
First Quarter

Hourly Weather History & Observations

Time (EDT) Temp. Windchill Dew Point Humidity Pressure Visibility Wind Dir Wind Speed Gust Speed Precip Events Conditions
12:53 AM 39.9 °F 35.8 °F 25.0 °F 55% 29.83 in 10.0 mi SSE 5.8 mph - N/A   Overcast
1:53 AM 41.0 °F - 25.0 °F 53% 29.80 in 10.0 mi Calm Calm - N/A   Overcast
2:53 AM 42.1 °F 40.2 °F 25.0 °F 51% 29.77 in 10.0 mi SSE 3.5 mph - N/A   Overcast
3:53 AM 43.0 °F 39.5 °F 25.0 °F 49% 29.74 in 10.0 mi SSE 5.8 mph - N/A   Overcast
4:53 AM 43.0 °F 39.5 °F 26.1 °F 51% 29.72 in 10.0 mi Variable 5.8 mph - N/A   Overcast
5:53 AM 43.0 °F - 25.0 °F 49% 29.72 in 10.0 mi Calm Calm - N/A   Overcast
6:53 AM 37.9 °F 34.4 °F 27.0 °F 65% 29.74 in 10.0 mi SSE 4.6 mph - N/A   Overcast
7:53 AM 41.0 °F - 27.0 °F 57% 29.73 in 10.0 mi Calm Calm - N/A   Overcast
8:53 AM 39.9 °F - 28.9 °F 65% 29.73 in 10.0 mi Calm Calm - N/A   Overcast
9:53 AM 48.0 °F - 27.0 °F 44% 29.72 in 10.0 mi SW 10.4 mph - N/A   Clear
10:53 AM 51.1 °F - 30.0 °F 44% 29.72 in 10.0 mi SW 10.4 mph - N/A   Mostly Cloudy
11:53 AM 50.0 °F - 30.9 °F 48% 29.73 in 10.0 mi West 8.1 mph - N/A   Overcast
12:53 PM 51.1 °F - 28.0 °F 41% 29.75 in 10.0 mi West 13.8 mph 23.0 mph N/A   Mostly Cloudy
1:53 PM 51.1 °F - 25.0 °F 36% 29.76 in 10.0 mi West 21.9 mph 31.1 mph N/A   Overcast
2:53 PM 50.0 °F - 23.0 °F 35% 29.77 in 10.0 mi West 15.0 mph 27.6 mph N/A   Scattered Clouds
3:53 PM 51.1 °F - 24.1 °F 35% 29.77 in 10.0 mi West 15.0 mph 23.0 mph N/A   Clear
4:53 PM 51.1 °F - 25.0 °F 36% 29.78 in 10.0 mi WNW 18.4 mph 27.6 mph N/A   Clear
5:53 PM 50.0 °F - 26.1 °F 39% 29.82 in 10.0 mi WNW 13.8 mph 21.9 mph N/A   Mostly Cloudy
6:53 PM 48.0 °F - 26.1 °F 42% 29.85 in 10.0 mi West 6.9 mph - N/A   Clear
7:53 PM 46.0 °F 42.5 °F 28.0 °F 50% 29.88 in 10.0 mi WNW 6.9 mph - N/A   Scattered Clouds
8:53 PM 45.0 °F 37.9 °F 28.0 °F 52% 29.93 in 10.0 mi West 16.1 mph - N/A   Scattered Clouds
9:53 PM 42.1 °F 35.7 °F 27.0 °F 55% 29.97 in 10.0 mi WNW 11.5 mph 24.2 mph N/A   Scattered Clouds
10:53 PM 41.0 °F 34.7 °F 23.0 °F 49% 29.99 in 10.0 mi West 10.4 mph 23.0 mph N/A   Clear
11:53 PM 39.0 °F 31.8 °F 19.0 °F 45% 29.99 in 10.0 mi WNW 11.5 mph - N/A   Clear